Date String (YYYY-MM-DD hh:mm:ss) UTC,Instrument flags,Ambient pressure (hPa),Sample flow (lpm),Bypass flow (lpm),Sample temperature (°C),Ambient temperature (°C),ASC tube jacket temperature (°C),LED temperature (°C),Box temperature (°C),Sample RH (%),Span deviation,Mass concentration (μg/m³),Mass concentration (μg/m³),Mass concentration (μg/m³)
DateTimeUTC,F1_M11,P_M11,Q1_M11,Q2_M11,T1_M11,T2_M11,T3_M11,T4_M11,T5_M11,U1_M11,ZSPAN_M11,X0_M11,X2_M11,X1_M11
2022-11-03 22:00:00,,0820.3,5.00,0.00,24.6,23.1,00.0,33.4,26.6,13.8,0000.0,0014.59,0004.72,0003.85
2022-11-03 22:01:00,,0820.4,5.00,0.00,24.6,23.0,00.0,33.4,26.5,13.9,0000.0,0015.59,0004.70,0003.85
2022-11-03 22:02:00,,0820.4,5.01,0.00,24.6,23.0,00.0,33.4,26.5,14.1,0000.0,0015.47,0004.68,0003.86
2022-11-03 22:03:00,,0820.6,5.00,0.00,24.6,23.0,00.0,33.4,26.5,14.2,0000.0,0014.44,0004.64,0003.85
2022-11-03 22:04:00,,0820.6,5.00,0.00,24.6,23.1,00.0,33.4,26.5,14.0,0000.0,0014.03,0004.60,0003.84
2022-11-03 22:05:00,,0820.6,4.99,0.00,24.6,23.1,00.0,33.4,26.5,14.2,0000.0,0013.34,0004.53,0003.83
2022-11-03 22:06:00,,0820.6,4.99,0.00,24.6,23.2,00.0,33.4,26.5,14.6,0000.0,0013.02,0004.52,0003.81
2022-11-03 22:07:00,,0820.6,5.01,0.00,24.6,23.2,00.0,33.4,26.6,14.7,0000.0,0012.92,0004.52,0003.79
2022-11-03 22:08:00,,0820.6,5.01,0.00,24.6,23.2,00.0,33.4,26.6,14.8,0000.0,0012.47,0004.51,0003.78
2022-11-03 22:09:00,,0820.6,5.00,0.00,24.6,23.2,00.0,33.4,26.6,15.0,0000.0,0012.61,0004.54,0003.76
2022-11-03 22:10:00,,0820.7,5.00,0.00,24.6,23.2,00.0,33.4,26.5,15.1,0000.0,0012.73,0004.55,0003.75
2022-11-03 22:11:00,,0820.6,5.00,0.00,24.6,23.2,00.0,33.4,26.6,15.0,0000.0,0012.33,0004.51,0003.74
2022-11-03 22:12:00,,0820.6,5.01,0.00,24.6,23.2,00.0,33.4,26.6,15.0,0000.0,0011.51,0004.50,0003.74
2022-11-03 22:13:00,,0820.6,5.00,0.00,24.6,23.3,00.0,33.4,26.6,15.0,0000.0,0011.66,0004.48,0003.72
2022-11-03 22:14:00,,0820.7,5.00,0.00,24.6,23.3,00.0,33.4,26.6,15.2,0000.0,0011.24,0004.49,0003.71
2022-11-03 22:15:00,,0820.7,4.99,0.00,24.6,23.3,00.0,33.4,26.6,15.4,0000.0,0010.81,0004.50,0003.71
2022-11-03 22:16:00,,0820.7,5.00,0.00,24.6,23.3,00.0,33.4,26.6,15.5,0000.0,0011.70,0004.54,0003.71
2022-11-03 22:17:00,,0820.7,5.01,0.00,24.6,23.3,00.0,33.4,26.6,15.6,0000.0,0011.81,0004.52,0003.70
2022-11-03 22:18:00,,0820.7,5.00,0.00,24.7,23.3,00.0,33.4,26.6,15.6,0000.0,0011.58,0004.49,0003.71
2022-11-03 22:19:00,,0820.6,5.01,0.00,24.7,23.3,00.0,33.4,26.6,15.6,0000.0,0011.46,0004.45,0003.72
2022-11-03 22:20:00,,0820.5,5.00,0.00,24.7,23.2,00.0,33.4,26.6,15.6,0000.0,0011.72,0004.43,0003.72
2022-11-03 22:21:00,,0820.3,4.98,0.00,24.6,23.2,00.0,33.4,26.6,15.7,0000.0,0011.70,0004.43,0003.73
2022-11-03 22:22:00,,0820.2,5.01,0.00,24.6,23.1,00.0,33.4,26.5,15.8,0000.0,0012.17,0004.46,0003.72
2022-11-03 22:23:00,,0820.2,5.01,0.00,24.6,23.0,00.0,33.4,26.5,16.0,0000.0,0011.96,0004.49,0003.73
2022-11-03 22:24:00,,0820.3,4.98,0.00,24.6,22.9,00.0,33.4,26.4,16.2,0000.0,0011.82,0004.50,0003.73
2022-11-03 22:25:00,,0820.4,5.00,0.00,24.6,22.9,00.0,33.4,26.4,16.2,0000.0,0011.40,0004.51,0003.73
2022-11-03 22:26:00,,0820.6,5.00,0.00,24.5,22.9,00.0,33.4,26.4,16.3,0000.0,0011.32,0004.53,0003.74
2022-11-03 22:27:00,,0820.6,5.00,0.00,24.5,22.9,00.0,33.4,26.4,16.3,0000.0,0010.66,0004.55,0003.75
2022-11-03 22:28:00,,0820.6,5.00,0.00,24.5,22.9,00.0,33.4,26.4,16.4,0000.0,0010.54,0004.56,0003.75
2022-11-03 22:29:00,,0820.7,4.99,0.00,24.5,23.0,00.0,33.4,26.4,16.5,0000.0,0011.29,0004.58,0003.74
2022-11-03 22:30:00,,0820.7,5.00,0.00,24.5,23.0,00.0,33.4,26.4,16.6,0000.0,0011.30,0004.56,0003.74
2022-11-03 22:31:00,,0820.7,5.01,0.00,24.5,23.1,00.0,33.3,26.5,16.6,0000.0,0011.97,0004.54,0003.74
2022-11-03 22:32:00,,0820.8,5.01,0.00,24.5,23.1,00.0,33.3,26.5,16.6,0000.0,0011.36,0004.50,0003.75
2022-11-03 22:33:00,,0820.9,5.00,0.00,24.5,23.1,00.0,33.3,26.4,16.6,0000.0,0011.09,0004.46,0003.75
2022-11-03 22:34:00,,0820.8,4.99,0.00,24.5,23.1,00.0,33.3,26.5,16.6,0000.0,0011.41,0004.46,0003.75
2022-11-03 22:35:00,,0820.9,5.00,0.00,24.5,23.1,00.0,33.3,26.5,16.6,0000.0,0011.53,0004.49,0003.76
2022-11-03 22:36:00,,0820.8,5.00,0.00,24.6,23.2,00.0,33.3,26.5,16.6,0000.0,0012.50,0004.50,0003.78
2022-11-03 22:37:00,,0820.9,5.00,0.00,24.6,23.2,00.0,33.3,26.5,16.6,0000.0,0012.55,0004.51,0003.78
2022-11-03 22:38:00,,0820.9,5.00,0.00,24.6,23.2,00.0,33.3,26.5,16.7,0000.0,0012.97,0004.51,0003.80
2022-11-03 22:39:00,,0820.9,5.00,0.00,24.6,23.2,00.0,33.3,26.5,16.7,0000.0,0013.46,0004.55,0003.83
2022-11-03 22:40:00,,0820.9,5.00,0.00,24.6,23.2,00.0,33.3,26.5,16.7,0000.0,0012.77,0004.54,0003.85
2022-11-03 22:41:00,,0821.0,5.00,0.00,24.6,23.2,00.0,33.3,26.5,16.7,0000.0,0012.84,0004.59,0003.88
2022-11-03 22:42:00,,0821.0,5.00,0.00,24.6,23.2,00.0,33.3,26.5,16.8,0000.0,0012.27,0004.65,0003.91
2022-11-03 22:43:00,,0821.0,5.00,0.00,24.6,23.2,00.0,33.3,26.5,16.8,0000.0,0012.31,0004.72,0003.93
2022-11-03 22:44:00,,0821.0,5.01,0.00,24.6,23.2,00.0,33.3,26.5,16.8,0000.0,0012.20,0004.76,0003.94
2022-11-03 22:45:00,,0821.0,5.00,0.00,24.6,23.2,00.0,33.3,26.5,16.8,0000.0,0011.78,0004.78,0003.96
2022-11-03 22:46:00,,0821.0,5.00,0.00,24.6,23.2,00.0,33.3,26.5,16.8,0000.0,0011.60,0004.75,0003.97
2022-11-03 22:47:00,,0821.0,5.00,0.00,24.6,23.2,00.0,33.3,26.5,16.9,0000.0,0010.71,0004.74,0003.98
2022-11-03 22:48:00,,0821.1,5.00,0.00,24.6,23.2,00.0,33.3,26.6,16.9,0000.0,0010.48,0004.73,0003.99
2022-11-03 22:49:00,,0821.1,4.98,0.00,24.6,23.2,00.0,33.3,26.6,16.9,0000.0,0010.22,0004.73,0003.99
2022-11-03 22:50:00,,0821.1,5.01,0.00,24.6,23.2,00.0,33.3,26.5,16.9,0000.0,0009.79,0004.71,0003.99
2022-11-03 22:51:00,,0821.2,5.00,0.00,24.6,23.1,00.0,33.4,26.6,16.9,0000.0,0009.63,0004.69,0003.99
2022-11-03 22:52:00,,0821.2,5.01,0.00,24.6,23.2,00.0,33.4,26.6,16.9,0000.0,0009.47,0004.69,0003.99
2022-11-03 22:53:00,,0821.2,5.00,0.00,24.6,23.1,00.0,33.3,26.5,17.0,0000.0,0009.65,0004.71,0003.98
2022-11-03 22:54:00,,0821.2,5.00,0.00,24.6,23.1,00.0,33.4,26.5,17.0,0000.0,0009.37,0004.69,0003.98
2022-11-03 22:55:00,,0821.2,5.00,0.00,24.6,23.1,00.0,33.4,26.5,17.0,0000.0,0009.75,0004.71,0003.98
2022-11-03 22:56:00,,0821.2,4.99,0.00,24.6,23.1,00.0,33.4,26.6,17.0,0000.0,0009.78,0004.72,0003.98
2022-11-03 22:57:00,,0821.2,5.00,0.00,24.6,23.1,00.0,33.4,26.6,17.0,0000.0,0009.92,0004.74,0003.99
2022-11-03 22:58:00,,0821.2,5.00,0.00,24.6,23.1,00.0,33.4,26.5,17.0,0000.0,0009.88,0004.77,0003.99
2022-11-03 22:59:00,,0821.2,5.00,0.00,24.6,23.2,00.0,33.4,26.5,17.0,0000.0,0009.85,0004.78,0003.98
